Time,TemperatureF,DewpointF,PressureIn,WindDirection,WindDirectionDegrees,WindSpeedMPH,WindSpeedGustMPH,Humidity,HourlyPrecipIn,Conditions,Clouds,dailyrainin,SoftwareType,DateUTC
2013-01-28 00:14:00,23.3,20.0,30.51,NNW,339,0.0,0.0,85,0.00,,,0.00,weatherlink.com 1.10,2013-01-28 05:14:00,
2013-01-28 00:29:00,23.1,19.0,30.52,NNW,339,0.0,0.0,85,0.00,,,0.00,weatherlink.com 1.10,2013-01-28 05:29:00,
2013-01-28 00:44:00,22.4,19.0,30.53,NNW,338,0.0,0.0,85,0.00,,,0.00,weatherlink.com 1.10,2013-01-28 05:44:00,
2013-01-28 00:59:00,22.1,19.0,30.52,NNW,338,0.0,0.0,86,0.00,,,0.00,weatherlink.com 1.10,2013-01-28 05:59:00,
2013-01-28 01:14:00,22.2,19.0,30.52,NNW,339,0.0,0.0,88,0.00,,,0.00,weatherlink.com 1.10,2013-01-28 06:14:00,
2013-01-28 01:29:00,22.3,20.0,30.52,NNW,339,0.0,0.0,89,0.00,,,0.00,weatherlink.com 1.10,2013-01-28 06:29:00,
2013-01-28 01:44:00,22.5,20.0,30.52,NNW,339,0.0,0.0,89,0.00,,,0.00,weatherlink.com 1.10,2013-01-28 06:44:00,
2013-01-28 01:59:00,22.8,20.0,30.51,NNW,339,0.0,0.0,89,0.00,,,0.00,weatherlink.com 1.10,2013-01-28 06:59:00,
2013-01-28 02:14:00,23.5,21.0,30.51,NNW,338,0.0,0.0,89,0.00,,,0.00,weatherlink.com 1.10,2013-01-28 07:14:00,
2013-01-28 02:29:00,24.1,21.0,30.49,NNW,338,0.0,0.0,88,0.00,,,0.00,weatherlink.com 1.10,2013-01-28 07:29:00,
2013-01-28 02:44:00,24.7,22.0,30.48,NNW,339,0.0,0.0,89,0.00,,,0.00,weatherlink.com 1.10,2013-01-28 07:44:00,
2013-01-28 02:59:00,25.1,22.0,30.48,NNW,339,0.0,0.0,88,0.00,,,0.00,weatherlink.com 1.10,2013-01-28 07:59:00,
2013-01-28 03:14:00,25.0,22.0,30.47,NNW,338,0.0,0.0,88,0.00,,,0.00,weatherlink.com 1.10,2013-01-28 08:14:00,
2013-01-28 03:29:00,25.3,22.0,30.47,NNW,338,0.0,0.0,88,0.00,,,0.00,weatherlink.com 1.10,2013-01-28 08:29:00,
2013-01-28 03:44:00,25.7,23.0,30.46,NNW,339,0.0,0.0,89,0.00,,,0.00,weatherlink.com 1.10,2013-01-28 08:44:00,
2013-01-28 03:59:00,26.6,24.0,30.46,SSE,167,0.0,1.0,89,0.00,,,0.00,weatherlink.com 1.10,2013-01-28 08:59:00,
2013-01-28 04:14:00,27.5,24.0,30.46,South,169,0.0,0.0,88,0.00,,,0.00,weatherlink.com 1.10,2013-01-28 09:14:00,
2013-01-28 04:29:00,28.1,25.0,30.46,South,172,0.0,0.0,87,0.00,,,0.00,weatherlink.com 1.10,2013-01-28 09:29:00,
2013-01-28 04:45:00,28.9,25.0,30.45,WSW,239,0.0,1.0,85,0.00,,,0.00,weatherlink.com 1.10,2013-01-28 09:45:00,
2013-01-28 04:59:00,29.2,25.0,30.45,WSW,239,0.0,0.0,83,0.00,,,0.00,weatherlink.com 1.10,2013-01-28 09:59:00,
2013-01-28 05:15:00,29.7,25.0,30.44,SSW,200,0.0,0.0,82,0.00,,,0.00,weatherlink.com 1.10,2013-01-28 10:15:00,
2013-01-28 05:29:00,30.0,25.0,30.44,SSW,197,0.0,0.0,81,0.00,,,0.00,weatherlink.com 1.10,2013-01-28 10:29:00,
2013-01-28 05:45:00,30.2,25.0,30.44,SSW,198,0.0,1.0,81,0.00,,,0.00,weatherlink.com 1.10,2013-01-28 10:45:00,
2013-01-28 05:59:00,30.4,25.0,30.44,SSW,204,0.0,2.0,80,0.00,,,0.00,weatherlink.com 1.10,2013-01-28 10:59:00,
2013-01-28 06:14:00,30.4,25.0,30.43,SW,221,0.0,1.0,80,0.00,,,0.00,weatherlink.com 1.10,2013-01-28 11:14:00,
2013-01-28 06:29:00,30.5,25.0,30.43,SSE,160,0.0,1.0,81,0.00,,,0.00,weatherlink.com 1.10,2013-01-28 11:29:00,
2013-01-28 06:44:00,30.9,26.0,30.44,SSE,162,0.0,1.0,82,0.00,,,0.00,weatherlink.com 1.10,2013-01-28 11:44:00,
2013-01-28 07:00:00,31.2,26.0,30.44,SW,225,0.0,1.0,82,0.00,,,0.00,weatherlink.com 1.10,2013-01-28 12:00:00,
2013-01-28 07:15:00,31.8,27.0,30.43,WNW,283,0.0,2.0,83,0.00,,,0.00,weatherlink.com 1.10,2013-01-28 12:15:00,
2013-01-28 07:30:00,32.0,28.0,30.44,NNW,345,0.0,1.0,85,0.00,,,0.00,weatherlink.com 1.10,2013-01-28 12:30:00,
2013-01-28 07:45:00,32.0,28.0,30.44,WSW,249,0.0,1.0,86,0.00,,,0.00,weatherlink.com 1.10,2013-01-28 12:45:00,
2013-01-28 08:00:00,32.1,29.0,30.44,SSW,205,0.0,2.0,87,0.00,,,0.00,weatherlink.com 1.10,2013-01-28 13:00:00,
2013-01-28 08:15:00,32.2,29.0,30.43,SW,226,0.0,1.0,88,0.00,,,0.00,weatherlink.com 1.10,2013-01-28 13:15:00,
2013-01-28 08:30:00,32.1,30.0,30.43,SW,219,0.0,3.0,90,0.00,,,0.00,weatherlink.com 1.10,2013-01-28 13:30:00,
2013-01-28 08:45:00,32.1,30.0,30.43,SW,221,0.0,2.0,91,0.00,,,0.00,weatherlink.com 1.10,2013-01-28 13:45:00,
2013-01-28 09:00:00,32.1,30.0,30.43,WSW,252,0.0,2.0,92,0.00,,,0.00,weatherlink.com 1.10,2013-01-28 14:00:00,
2013-01-28 09:15:00,32.2,30.0,30.43,West,278,0.0,2.0,93,0.00,,,0.00,weatherlink.com 1.10,2013-01-28 14:15:00,
2013-01-28 09:30:00,32.6,31.0,30.42,WSW,245,0.0,2.0,93,0.00,,,0.00,weatherlink.com 1.10,2013-01-28 14:30:00,
2013-01-28 09:45:00,32.8,31.0,30.41,SSW,212,0.0,3.0,93,0.00,,,0.00,weatherlink.com 1.10,2013-01-28 14:45:00,
2013-01-28 10:00:00,33.1,31.0,30.39,SSE,156,0.0,4.0,93,0.00,,,0.00,weatherlink.com 1.10,2013-01-28 15:00:00,
2013-01-28 10:15:00,33.5,32.0,30.39,South,186,1.0,5.0,93,0.00,,,0.00,weatherlink.com 1.10,2013-01-28 15:15:00,
2013-01-28 10:30:00,33.9,32.0,30.39,WSW,239,0.0,4.0,93,0.00,,,0.00,weatherlink.com 1.10,2013-01-28 15:30:00,
2013-01-28 10:45:00,34.2,32.0,30.39,West,263,0.0,5.0,91,0.01,,,0.01,weatherlink.com 1.10,2013-01-28 15:45:00,
2013-01-28 11:00:00,34.6,32.0,30.38,SW,232,0.0,3.0,89,0.02,,,0.02,weatherlink.com 1.10,2013-01-28 16:00:00,
2013-01-28 11:15:00,34.9,32.0,30.36,SW,225,2.0,5.0,88,0.02,,,0.02,weatherlink.com 1.10,2013-01-28 16:15:00,
2013-01-28 11:30:00,35.1,32.0,30.35,SSW,201,0.0,4.0,87,0.03,,,0.03,weatherlink.com 1.10,2013-01-28 16:30:00,
2013-01-28 11:45:00,35.0,32.0,30.33,SW,229,0.0,8.0,87,0.02,,,0.03,weatherlink.com 1.10,2013-01-28 16:45:00,
2013-01-28 12:00:00,34.7,32.0,30.32,SSW,193,3.0,6.0,89,0.01,,,0.03,weatherlink.com 1.10,2013-01-28 17:00:00,
2013-01-28 12:16:00,34.9,32.0,30.30,SSW,208,1.0,5.0,90,0.01,,,0.04,weatherlink.com 1.10,2013-01-28 17:16:00,
2013-01-28 12:30:00,34.8,33.0,30.29,WSW,239,0.0,5.0,91,0.02,,,0.05,weatherlink.com 1.10,2013-01-28 17:30:00,
2013-01-28 12:46:00,34.4,32.0,30.27,SW,217,2.0,5.0,92,0.03,,,0.06,weatherlink.com 1.10,2013-01-28 17:46:00,
2013-01-28 13:00:00,34.4,33.0,30.24,SSE,165,1.0,5.0,94,0.03,,,0.06,weatherlink.com 1.10,2013-01-28 18:00:00,
2013-01-28 13:16:00,34.5,33.0,30.23,SW,229,1.0,5.0,94,0.02,,,0.06,weatherlink.com 1.10,2013-01-28 18:16:00,
2013-01-28 13:31:00,34.8,33.0,30.22,South,191,2.0,7.0,94,0.01,,,0.06,weatherlink.com 1.10,2013-01-28 18:31:00,
2013-01-28 13:46:00,34.8,34.0,30.19,SSW,203,3.0,6.0,95,0.00,,,0.06,weatherlink.com 1.10,2013-01-28 18:46:00,
2013-01-28 14:01:00,35.1,34.0,30.20,WNW,291,1.0,4.0,95,0.00,,,0.06,weatherlink.com 1.10,2013-01-28 19:01:00,
2013-01-28 14:16:00,35.7,34.0,30.17,SW,232,0.0,4.0,95,0.00,,,0.06,weatherlink.com 1.10,2013-01-28 19:16:00,
2013-01-28 14:31:00,36.2,35.0,30.18,WSW,242,0.0,3.0,94,0.00,,,0.06,weatherlink.com 1.10,2013-01-28 19:31:00,
2013-01-28 14:46:00,36.5,35.0,30.17,SSW,200,1.0,3.0,94,0.00,,,0.06,weatherlink.com 1.10,2013-01-28 19:46:00,
2013-01-28 15:01:00,36.7,35.0,30.15,SW,222,1.0,5.0,93,0.00,,,0.06,weatherlink.com 1.10,2013-01-28 20:01:00,
2013-01-28 15:16:00,36.6,35.0,30.14,SSW,210,0.0,2.0,93,0.00,,,0.06,weatherlink.com 1.10,2013-01-28 20:16:00,
2013-01-28 15:31:00,36.3,35.0,30.12,South,179,1.0,4.0,94,0.00,,,0.06,weatherlink.com 1.10,2013-01-28 20:31:00,
2013-01-28 15:46:00,36.3,35.0,30.13,SSW,200,0.0,2.0,94,0.00,,,0.06,weatherlink.com 1.10,2013-01-28 20:46:00,
2013-01-28 16:01:00,36.4,35.0,30.14,WSW,239,0.0,1.0,95,0.00,,,0.06,weatherlink.com 1.10,2013-01-28 21:01:00,
2013-01-28 16:16:00,36.5,35.0,30.12,SSE,152,0.0,2.0,95,0.00,,,0.06,weatherlink.com 1.10,2013-01-28 21:16:00,
2013-01-28 16:31:00,36.5,35.0,30.12,SSW,205,0.0,1.0,95,0.00,,,0.06,weatherlink.com 1.10,2013-01-28 21:31:00,
2013-01-28 16:46:00,36.5,35.0,30.12,SSW,205,0.0,0.0,95,0.00,,,0.06,weatherlink.com 1.10,2013-01-28 21:46:00,
2013-01-28 17:01:00,36.5,35.0,30.12,SSW,205,0.0,1.0,95,0.00,,,0.06,weatherlink.com 1.10,2013-01-28 22:01:00,
2013-01-28 17:16:00,36.4,35.0,30.11,SSW,204,0.0,0.0,95,0.00,,,0.06,weatherlink.com 1.10,2013-01-28 22:16:00,
2013-01-28 17:31:00,36.4,35.0,30.11,SSW,204,0.0,0.0,96,0.00,,,0.06,weatherlink.com 1.10,2013-01-28 22:31:00,
2013-01-28 17:46:00,36.4,35.0,30.11,SSW,205,0.0,0.0,96,0.00,,,0.06,weatherlink.com 1.10,2013-01-28 22:46:00,
2013-01-28 18:01:00,36.4,35.0,30.10,WSW,242,0.0,1.0,96,0.00,,,0.06,weatherlink.com 1.10,2013-01-28 23:01:00,
2013-01-28 18:16:00,36.8,36.0,30.11,WSW,252,0.0,1.0,97,0.00,,,0.06,weatherlink.com 1.10,2013-01-28 23:16:00,
2013-01-28 18:31:00,37.0,36.0,30.10,West,274,0.0,2.0,97,0.00,,,0.06,weatherlink.com 1.10,2013-01-28 23:31:00,
2013-01-28 18:46:00,37.2,37.0,30.11,West,263,0.0,1.0,97,0.00,,,0.06,weatherlink.com 1.10,2013-01-28 23:46:00,
2013-01-28 19:01:00,37.3,37.0,30.09,WSW,250,0.0,2.0,97,0.00,,,0.06,weatherlink.com 1.10,2013-01-29 00:01:00,
2013-01-28 19:16:00,37.5,37.0,30.09,West,270,0.0,2.0,97,0.00,,,0.06,weatherlink.com 1.10,2013-01-29 00:16:00,
2013-01-28 19:31:00,37.7,37.0,30.09,West,261,0.0,3.0,97,0.00,,,0.06,weatherlink.com 1.10,2013-01-29 00:31:00,
2013-01-28 19:47:00,37.9,37.0,30.08,West,263,0.0,2.0,96,0.00,,,0.06,weatherlink.com 1.10,2013-01-29 00:47:00,
2013-01-28 20:01:00,38.0,37.0,30.08,West,261,0.0,1.0,96,0.00,,,0.06,weatherlink.com 1.10,2013-01-29 01:01:00,
2013-01-28 20:16:00,38.1,37.0,30.08,NW,320,0.0,1.0,96,0.00,,,0.06,weatherlink.com 1.10,2013-01-29 01:16:00,
2013-01-28 20:31:00,38.2,37.0,30.07,WSW,246,0.0,3.0,96,0.00,,,0.06,weatherlink.com 1.10,2013-01-29 01:31:00,
2013-01-28 20:47:00,38.7,37.0,30.06,WSW,245,0.0,2.0,94,0.00,,,0.06,weatherlink.com 1.10,2013-01-29 01:47:00,
2013-01-28 21:01:00,38.7,37.0,30.06,West,274,0.0,2.0,94,0.00,,,0.06,weatherlink.com 1.10,2013-01-29 02:01:00,
2013-01-28 21:16:00,38.9,37.0,30.05,WSW,255,1.0,3.0,94,0.00,,,0.06,weatherlink.com 1.10,2013-01-29 02:16:00,
2013-01-28 21:31:00,39.9,38.0,30.05,West,267,0.0,4.0,93,0.00,,,0.06,weatherlink.com 1.10,2013-01-29 02:31:00,
2013-01-28 21:47:00,39.9,38.0,30.05,WSW,242,0.0,1.0,93,0.00,,,0.06,weatherlink.com 1.10,2013-01-29 02:47:00,
2013-01-28 22:02:00,40.0,38.0,30.05,WSW,255,0.0,1.0,93,0.00,,,0.06,weatherlink.com 1.10,2013-01-29 03:02:00,
2013-01-28 22:17:00,40.6,39.0,30.05,West,277,0.0,1.0,93,0.00,,,0.06,weatherlink.com 1.10,2013-01-29 03:17:00,
2013-01-28 22:32:00,41.2,39.0,30.05,NW,305,0.0,2.0,92,0.00,,,0.06,weatherlink.com 1.10,2013-01-29 03:32:00,
2013-01-28 22:47:00,41.3,39.0,30.05,WNW,293,0.0,2.0,92,0.00,,,0.06,weatherlink.com 1.10,2013-01-29 03:47:00,
2013-01-28 23:02:00,41.4,39.0,30.05,WSW,239,0.0,1.0,92,0.00,,,0.06,weatherlink.com 1.10,2013-01-29 04:02:00,
2013-01-28 23:17:00,41.5,40.0,30.05,West,267,0.0,1.0,93,0.00,,,0.06,weatherlink.com 1.10,2013-01-29 04:17:00,
2013-01-28 23:32:00,41.4,39.0,30.05,WNW,298,0.0,1.0,92,0.00,,,0.06,weatherlink.com 1.10,2013-01-29 04:32:00,
2013-01-28 23:47:00,42.0,40.0,30.05,WNW,298,2.0,2.0,93,0.00,,,0.06,weatherlink.com 1.10,2013-01-29 04:47:00,